Dewpoint
60 58 60 59 58 55 50 47 35 44 37 29 32 28 27 34 38 34 33 37 36 41 44 43 45 45 44 44 46 51 56 47 49 42 49 60 65 64 64 63 65 66 67 67 68 68 68 69 69 69 68 67 67 65 65 64 64 64 65 66 67 68 68 68 68 68 68 69 68 69 69 69 69 68 68 68 68 68 68 68 68 68 67 67 66 66 66 65 65 65 65 66 65 66 67 66 65
56 58 59 59 55 53 49 45 39 35 35 31 28 30 32 35 34 32 33 35 41 47 49 47 49 52 53 52 54 52 55 58 56 58 61 64 65 64 64 65 65 66 67 67 67 67 67 68 70 69 67 65 66 65 65 64 65 65 65 66 67 68 68 68 68 68 68 68 68 68 67 68 68 68 69 68 68 68 67 67 67 66 66 66 65 65 64 64 63 64 64 65 64 64 63 64 66
57 58 57 55 51 47 45 44 33 33 30 26 26 28 36 31 32 33 36 38 50 51 51 50 51 51 49 50 47 51 53 59 60 60 62 65 63 64 64 64 66 66 66 67 67 67 67 68 70 68 66 65 65 65 65 65 65 65 65 66 67 68 68 68 68 68 68 68 68 68 68 68 68 68 68 68 67 66 66 66 66 65 65 65 65 64 64 63 63 63 63 63 63 64 63 63 63
59 60 57 54 47 48 44 41 34 33 29 26 27 32 32 34 36 39 39 44 50 49 48 48 48 55 53 45 52 55 55 56 59 60 61 63 60 64 64 65 67 66 67 67 67 67 67 69 69 68 67 65 65 66 65 65 65 65 66 67 67 68 68 67 68 68 69 68 69 68 68 67 68 68 68 67 66 66 66 65 65 65 65 64 64 63 63 63 62 62 62 61 61 62 62 62 61
58 58 59 51 46 43 43 41 39 33 27 29 23 35 35 37 38 40 41 45 48 48 46 51 50 55 58 55 56 52 55 59 61 62 61 64 65 65 64 66 66 67 67 67 66 67 67 68 69 68 68 66 66 65 65 66 66 66 67 67 68 68 68 68 68 68 68 68 69 69 68 68 68 67 66 67 66 66 66 64 63 63 63 64 63 62 61 62 61 60 61 62 61 63 63 62 61
58 55 56 54 45 48 43 38 37 33 29 31 24 35 37 38 39 40 41 45 45 47 46 51 50 50 55 57 57 56 57 55 59 62 62 64 66 66 64 67 67 67 66 67 67 67 67 69 69 68 68 67 66 66 66 66 66 67 68 68 68 68 68 68 68 68 68 69 68 68 68 67 67 66 67 67 66 65 65 64 63 63 63 63 62 61 60 60 60 59 59 60 61 61 60 58 58
55 53 51 50 48 47 41 38 35 34 32 33 28 34 37 38 39 40 42 44 46 48 45 49 53 52 52 56 58 60 62 61 60 61 63 65 66 65 65 65 67 67 67 67 69 67 68 68 68 68 68 67 66 66 66 66 67 68 68 68 67 67 68 68 68 68 68 68 67 67 67 68 68 67 67 67 66 66 65 64 63 63 62 61 62 61 59 59 59 59 58 58 57 58 60 58 60
60 55 50 45 45 43 40 39 38 37 37 36 36 35 37 39 41 39 39 43 43 44 50 52 52 51 53 55 54 61 63 63 62 64 65 65 66 65 65 65 66 68 67 67 67 68 69 68 68 68 68 68 66 66 67 67 67 68 68 67 68 67 67 67 67 67 67 67 68 68 68 68 67 66 67 67 67 66 65 65 64 63 62 61 61 60 60 60 59 58 59 58 58 56 55 55 56
55 50 52 48 43 46 41 40 38 39 39 39 37 40 46 41 42 40 38 41 41 42 48 51 50 47 52 55 56 60 63 63 64 65 65 65 65 65 65 65 67 68 68 67 67 67 68 68 68 68 68 68 67 67 68 67 68 68 68 68 67 67 67 67 67 67 67 67 67 67 66 67 68 67 67 67 66 66 65 65 64 64 63 62 62 60 61 60 59 59 59 60 59 58 57 56 57
51 50 44 42 44 41 41 40 39 39 39 39 39 38 41 41 40 41 38 38 40 43 50 51 50 51 55 54 57 60 63 65 65 65 66 65 65 65 66 66 67 68 69 67 67 67 68 69 67 67 67 68 69 68 68 68 67 67 67 67 67 66 65 64 64 65 66 66 67 67 67 67 67 67 66 66 66 66 66 66 65 64 64 64 63 63 61 60 59 58 59 59 58 59 59 60 60
42 45 50 42 40 38 39 39 40 41 40 41 41 42 42 42 41 39 39 38 43 42 52 53 51 53 54 55 57 62 64 65 64 64 65 66 66 66 65 66 67 68 68 68 69 68 67 67 68 67 67 68 68 68 68 68 67 67 66 66 66 65 65 65 65 64 64 65 65 65 65 66 66 67 68 68 67 67 66 63 62 62 62 63 64 64 63 59 60 59 58 58 57 57 58 59 60
43 40 46 36 36 37 36 38 39 40 41 41 39 42 43 42 42 39 38 38 42 47 49 51 51 54 53 54 57 63 65 64 64 65 65 65 66 66 66 67 67 68 69 67 68 67 66 67 66 68 67 67 67 67 68 67 68 67 67 66 66 66 66 65 65 64 64 65 64 64 64 64 65 66 68 68 68 67 65 64 62 61 60 61 61 62 61 61 61 60 61 61 59 58 59 59 59
43 45 38 32 33 36 37 38 40 40 40 40 39 41 42 41 39 38 38 38 42 46 49 51 55 54 51 53 60 63 64 64 65 66 66 67 67 67 67 67 66 67 68 68 69 66 66 65 65 65 67 66 66 67 67 67 68 68 68 68 67 67 67 66 65 65 65 66 67 65 64 64 65 66 68 68 68 66 65 65 64 63 62 61 61 61 60 60 60 60 60 61 60 59 59 59 60
47 47 36 30 38 40 38 39 37 39 38 40 41 41 41 39 40 40 39 38 42 45 51 53 53 55 55 56 59 61 63 66 66 66 66 67 67 68 69 67 67 69 68 67 67 65 64 64 64 65 66 65 67 67 66 67 67 68 68 68 68 68 68 67 66 66 66 67 68 68 68 66 66 66 66 66 66 65 65 65 65 64 63 64 63 62 62 61 60 61 61 62 62 61 60 60 61
48 52 42 31 38 35 36 37 38 37 36 41 42 42 42 46 42 39 40 40 49 57 55 57 55 52 51 52 54 61 63 67 67 67 67 67 67 67 68 67 66 68 68 67 65 64 63 64 63 64 64 64 64 64 66 68 66 67 67 67 67 67 66 65 65 65 65 65 66 66 67 67 66 66 66 66 65 65 66 65 65 64 64 64 63 63 63 63 63 63 62 63 63 63 63 63 64
53 50 43 35 27 33 28 37 35 37 35 41 44 44 44 49 50 50 52 52 54 57 57 52 55 50 53 51 55 62 65 67 67 67 66 66 66 66 67 67 68 68 67 67 65 64 64 63 63 63 63 63 64 64 65 67 66 65 66 66 66 65 65 64 64 64 63 63 63 63 64 65 65 65 64 65 64 64 65 63 65 65 65 64 64 64 64 65 64 64 64 64 64 64 65 65 65
53 53 37 33 26 31 25 36 34 36 36 41 45 43 41 47 53 56 57 56 54 56 56 57 58 58 54 56 60 64 66 67 66 66 66 65 65 66 65 66 68 68 67 67 65 63 64 63 62 62 62 62 64 64 64 65 68 65 65 64 64 64 64 63 63 62 62 61 62 61 63 62 61 62 64 60 64 63 61 61 62 62 63 64 65 65 65 65 65 65 65 65 65 65 66 65 65
51 41 34 29 26 29 24 33 35 39 38 42 43 43 42 45 51 54 55 55 55 56 56 58 58 58 59 60 64 65 66 67 65 65 64 64 64 64 65 65 66 65 66 66 65 64 63 64 64 62 63 64 63 64 64 66 68 65 66 66 66 64 63 63 65 63 65 64 61 64 63 61 60 61 61 64 61 64 64 61 61 62 63 63 64 65 65 64 65 65 65 65 65 65 64 63 61
43 38 36 26 27 25 37 36 39 39 34 44 47 47 43 49 50 51 53 53 53 54 55 56 57 59 60 64 65 65 65 64 62 64 62 62 62 63 65 64 65 65 64 65 65 63 63 64 64 62 63 63 64 65 65 66 66 65 67 66 66 64 65 65 63 65 65 65 65 64 63 63 63 62 63 64 64 62 64 61 61 61 62 62 63 63 63 63 63 63 63 63 63 64 64 62 61
44 38 32 33 38 39 41 45 47 45 46 45 47 49 46 48 50 52 52 52 51 50 48 57 55 58 56 56 55 55 57 56 59 58 56 55 56 56 56 57 58 59 60 63 66 65 66 64 65 65 65 64 64 64 65 65 66 66 67 67 67 66 67 66 64 64 65 66 66 65 66 65 65 64 65 65 65 65 64 61 62 61 62 62 61 64 63 63 63 64 63 62 63 63 63 62 62
41 42 34 32 39 36 41 44 46 49 46 43 47 48 46 46 47 50 51 50 49 45 43 42 45 47 51 50 50 51 51 50 50 51 51 51 51 52 53 53 54 55 57 59 59 58 59 62 66 66 67 66 66 66 65 66 66 66 67 66 66 65 62 61 60 60 60 62 64 65 67 66 66 65 65 64 65 64 64 64 64 64 64 64 62 64 63 64 63 64 63 63 62 63 63 62 62
45 36 35 42 43 37 43 47 51 51 51 46 48 45 48 48 45 43 47 47 48 43 42 41 42 42 45 45 46 48 45 45 45 46 46 46 47 49 50 52 53 51 55 54 53 55 56 59 63 66 65 67 66 65 65 67 66 66 62 61 61 60 59 58 59 58 59 59 60 63 63 64 64 64 63 63 63 63 63 63 63 63 63 64 64 63 63 63 63 63 63 63 62 63 63 63 63
36 38 42 43 42 43 46 47 51 52 52 50 49 51 48 47 44 42 40 40 40 41 43 41 40 40 41 42 43 43 42 42 42 42 42 42 44 46 48 47 48 48 54 50 52 54 56 60 63 66 65 66 66 67 66 65 63 60 58 58 58 53 54 52 51 53 53 56 55 58 60 63 61 60 60 60 60 61 60 61 60 60 60 62 61 62 63 63 63 63 63 63 62 62 63 63 63
42 33 40 40 44 44 45 46 50 49 50 51 51 49 48 47 46 43 40 39 38 38 40 41 42 40 40 39 38 40 40 39 39 39 40 40 42 43 46 46 46 45 51 49 51 54 57 59 63 66 65 63 61 63 61 61 58 56 53 51 49 48 48 47 47 48 50 50 52 53 55 56 56 56 55 55 55 56 57 58 58 56 55 56 56 57 60 60 60 61 62 63 62 62 62 62 62
38 34 36 38 42 45 47 46 48 50 50 50 50 48 46 46 44 42 39 39 39 38 39 40 40 41 39 38 36 36 37 37 37 38 38 36 38 41 43 46 45 44 45 47 50 52 55 58 60 60 61 59 58 57 56 55 52 52 51 49 47 46 44 43 43 44 45 45 47 50 50 52 53 53 54 57 50 50 51 53 52 51 51 50 51 51 54 55 55 57 59 60 61 61 61 61 61
35 34 39 40 41 43 44 46 49 49 50 48 45 44 44 44 43 40 39 38 39 39 38 39 38 38 38 37 37 34 34 34 35 35 34 36 35 36 39 42 42 41 42 45 48 50 52 56 54 56 55 53 51 50 50 48 47 47 47 47 45 44 43 42 42 41 41 42 42 44 46 46 48 47 47 47 46 46 46 47 47 46 45 44 45 47 47 50 50 52 54 57 59 59 58 56 56
37 38 38 36 37 41 44 47 49 50 49 47 45 45 44 45 48 39 39 39 39 38 38 38 37 36 37 37 37 36 32 35 32 33 33 33 33 34 35 39 40 39 40 43 46 48 49 50 49 50 50 48 47 47 47 43 42 42 43 43 43 42 41 40 39 38 39 39 40 41 41 42 42 44 44 43 43 42 42 42 42 41 40 40 41 43 43 45 46 47 50 53 55 52 48 48 48
36 34 36 36 38 39 42 44 46 48 49 50 46 44 42 42 41 38 39 39 38 38 37 37 35 35 34 36 38 36 35 33 32 32 31 30 31 32 33 36 39 39 38 41 44 46 45 46 47 46 47 45 44 43 45 49 40 39 39 37 38 38 38 37 36 36 37 37 38 38 39 39 39 40 41 42 42 42 42 41 40 40 39 39 40 41 41 42 43 44 46 51 50 44 43 39 43
36 35 29 30 34 33 34 41 45 48 48 47 44 45 40 38 38 39 39 38 38 38 37 36 35 35 34 34 36 37 36 36 35 31 30 29 30 30 32 34 36 40 38 40 43 44 43 43 47 45 44 41 41 40 41 50 40 35 35 34 35 36 34 33 33 34 34 35 36 36 35 36 35 36 38 41 41 40 40 39 38 39 40 39 40 41 42 42 41 42 43 46 43 41 40 38 41
35 36 30 29 31 29 31 38 44 47 49 46 45 40 37 35 36 38 39 38 38 36 36 36 35 33 34 33 34 35 36 36 36 33 30 29 29 29 31 32 35 38 39 38 41 42 42 41 40 43 43 40 39 36 36 40 36 35 34 33 33 32 30 30 30 30 31 32 33 33 33 34 34 34 36 38 37 37 37 36 36 35 35 37 37 37 36 39 40 40 41 42 42 36 37 37 36
29 29 29 19 21 14 23 33 41 45 49 47 48 39 36 34 35 36 37 37 37 34 33 33 34 34 33 33 32 33 34 35 34 34 31 30 30 30 30 31 33 35 42 36 39 41 40 39 38 39 46 37 36 34 35 35 33 32 31 31 31 30 29 28 28 28 28 29 31 31 32 33 33 34 36 34 34 35 33 33 33 33 34 35 34 34 34 36 39 39 39 40 37 35 36 36 35
32 27 26 27 18 17 25 29 39 41 45 45 47 40 36 32 32 35 36 36 36 33 33 32 32 33 34 33 33 31 33 35 34 32 33 33 30 31 30 30 32 33 38 35 36 39 42 41 40 35 37 36 36 36 33 32 30 30 29 31 27 28 26 27 25 26 26 27 29 31 31 32 32 33 34 35 34 34 32 32 32 34 34 33 33 33 34 34 36 38 37 39 36 33 33 32 33
29 28 21 20 22 18 28 26 34 41 45 40 41 38 32 31 32 34 35 35 34 32 31 31 32 32 32 33 33 32 32 34 35 34 33 35 34 33 31 30 32 33 34 35 34 36 42 41 45 39 31 32 33 31 31 30 28 26 24 23 23 24 23 24 24 25 25 26 27 29 31 31 31 33 33 34 34 34 34 33 32 34 34 33 33 32 32 34 35 37 34 37 35 30 30 32 32
17 25 22 25 21 19 21 40 39 42 45 33 37 33 31 30 30 32 33 34 33 31 31 31 30 29 30 31 31 32 32 31 33 34 34 35 36 34 35 35 32 32 31 33 33 33 37 41 38 41 37 29 29 28 26 25 24 24 24 23 25 22 23 23 23 24 25 25 26 27 31 31 30 31 32 33 33 34 33 33 33 33 32 32 32 32 32 34 35 34 32 33 33 28 28 31 32
11 17 21 22 25 27 23 33 37 36 34 32 32 30 29 30 30 30 31 32 31 31 31 30 29 29 29 29 30 31 31 32 33 33 34 35 35 33 35 37 35 33 33 32 32 33 33 36 36 36 35 30 26 24 24 23 22 22 22 23 23 22 22 22 22 23 24 24 25 27 29 29 30 30 31 32 32 32 32 31 31 31 30 30 31 32 32 33 34 33 32 31 31 29 30 34 35
18 20 17 19 19 19 24 35 35 35 31 31 31 29 28 29 29 29 29 30 30 29 29 29 29 29 29 29 28 28 31 32 33 33 33 35 36 35 35 36 36 36 35 34 33 33 32 32 35 36 36 32 36 23 21 21 22 23 21 21 21 21 20 23 22 23 23 23 26 25 27 28 29 29 29 30 31 31 30 30 30 30 29 29 29 31 31 31 32 33 32 31 29 28 31 35 36
30 28 26 24 22 24 35 34 32 32 29 27 27 28 27 27 28 28 29 28 29 28 28 29 28 28 28 29 29 28 29 27 31 32 33 32 34 35 35 35 35 36 36 37 34 33 33 32 33 35 39 33 30 33 30 21 19 20 22 24 19 20 20 20 20 22 22 23 24 24 26 26 29 29 28 29 29 30 28 28 29 29 28 28 28 28 31 31 31 31 31 30 28 27 30 35 33
30 28 27 25 25 23 34 33 33 36 31 26 26 25 25 26 27 28 29 28 28 28 28 28 28 28 28 28 28 30 31 32 31 31 30 32 34 34 34 35 34 34 35 35 35 35 35 34 35 37 40 39 27 27 29 28 22 23 20 19 19 19 19 19 19 19 20 24 23 23 24 25 27 27 27 27 28 29 27 26 26 27 27 26 27 27 29 30 29 29 30 29 28 26 29 34 30
27 24 22 25 24 27 34 33 34 32 30 26 25 25 24 25 26 27 27 28 29 29 28 27 27 28 28 28 28 29 31 31 31 31 31 32 32 33 34 33 34 34 33 33 34 34 35 36 36 37 39 39 39 27 23 24 26 22 19 18 17 18 20 20 20 21 20 19 20 22 22 23 25 25 25 26 26 27 27 25 25 25 25 27 25 25 27 27 27 28 29 28 26 26 28 33 28
24 23 23 20 25 25 22 32 33 31 29 25 25 24 24 25 26 26 27 27 28 29 29 28 28 27 27 27 27 28 29 30 31 31 31 32 32 31 32 32 32 32 33 34 34 33 33 36 35 33 35 36 39 38 27 23 21 20 21 21 19 18 18 20 20 19 18 18 18 19 20 21 23 23 24 24 24 25 26 26 24 25 24 25 24 24 25 26 26 26 28 28 29 27 28 29 30
25 25 23 22 25 28 29 30 29 29 28 28 25 25 24 25 24 24 25 26 26 27 27 27 26 28 28 29 28 27 28 30 30 30 31 31 31 31 32 31 31 31 32 32 32 33 34 34 35 35 37 35 28 30 25 21 19 19 19 19 19 19 18 17 16 15 16 18 16 17 17 19 20 21 23 22 22 23 25 25 25 24 23 23 24 23 23 24 25 26 27 27 28 28 28 29 28
21 25 25 24 27 29 30 29 28 26 24 27 29 26 25 25 24 24 25 25 25 25 25 25 25 24 24 26 26 27 29 30 30 29 30 30 30 31 31 31 30 31 31 31 31 32 33 34 34 34 35 34 24 25 23 22 22 20 18 17 16 15 15 16 14 14 14 14 13 15 16 17 18 19 20 21 20 21 22 23 24 23 22 21 23 22 22 22 25 25 26 27 27 29 28 26 23
17 17 25 27 27 31 31 29 29 23 22 25 29 27 25 24 24 24 25 24 25 26 26 24 25 26 25 25 26 26 27 27 29 29 30 29 28 29 29 30 30 30 31 30 31 31 31 33 33 33 35 35 29 23 22 21 21 23 22 19 18 15 14 15 15 14 13 13 14 12 13 16 17 17 18 19 19 19 20 21 22 21 20 20 21 20 21 21 22 24 25 25 25 27 28 25 22
16 24 24 26 25 28 30 30 29 27 31 29 29 30 26 24 25 26 26 25 25 25 25 25 25 25 26 25 26 26 27 28 28 27 28 29 29 29 29 29 30 30 30 31 30 30 30 30 31 32 34 34 34 30 23 20 20 21 18 18 17 16 15 14 13 13 14 14 13 13 12 12 15 16 17 18 18 18 19 19 19 19 19 19 19 18 20 20 22 23 24 25 24 24 26 22 20
21 31 33 27 24 27 31 29 28 30 28 25 28 31 27 26 25 26 26 23 24 25 25 25 26 24 24 25 25 27 28 29 28 29 29 29 28 29 29 29 29 29 29 29 29 29 30 29 31 31 32 32 33 30 32 30 20 17 16 16 15 15 14 15 14 14 13 13 13 12 12 11 12 15 16 17 17 17 18 19 19 18 18 18 17 19 20 21 21 22 22 22 24 23 23 23 20
24 34 33 34 30 30 31 28 28 29 28 23 28 30 26 25 23 24 25 24 24 25 26 26 26 24 24 24 25 26 28 29 29 29 29 29 29 29 28 29 28 28 29 29 29 29 29 29 28 27 27 31 31 28 27 19 15 16 15 15 15 14 13 12 13 13 13 13 13 12 11 11 10 12 13 16 17 17 17 17 18 18 17 17 18 18 19 20 20 20 21 22 23 22 22 22 21
34 34 32 31 30 30 31 28 28 27 21 25 29 31 30 22 24 23 23 23 26 27 27 27 26 25 24 23 24 26 27 30 29 30 29 28 29 29 28 27 27 27 27 28 27 27 27 27 28 25 26 31 29 23 19 16 15 14 14 15 15 15 14 13 12 13 12 12 11 12 11 12 11 11 11 12 15 17 16 16 16 17 16 17 16 16 16 18 17 18 18 21 22 20 20 22 21
30 30 29 28 26 30 29 27 29 21 18 27 30 31 31 24 25 25 26 25 26 27 27 27 26 26 27 26 25 26 28 29 29 29 28 28 28 28 29 27 26 27 26 26 26 26 23 22 20 23 23 23 23 18 17 17 16 14 14 14 14 14 14 13 12 12 12 12 12 11 10 11 10 12 11 12 14 15 14 14 14 14 14 15 14 14 16 17 16 16 16 18 21 20 22 20 19
31 29 27 21 19 21 16 21 19 19 18 29 31 31 27 27 27 27 26 25 27 27 29 29 27 27 28 28 28 29 30 29 29 29 28 27 27 25 26 26 26 25 25 24 20 19 18 17 16 16 17 18 17 16 16 15 15 15 14 13 14 14 14 14 13 13 13 11 11 11 11 10 10 11 11 11 14 14 13 13 13 12 12 14 15 16 16 17 17 16 16 19 20 20 19 22 19
28 27 23 18 14 14 12 16 20 22 25 30 30 30 27 27 28 28 27 27 27 27 28 28 26 27 26 28 29 29 30 29 29 29 28 26 25 24 23 21 19 19 19 19 19 18 18 17 17 16 15 15 15 14 15 15 14 14 14 14 13 12 13 13 11 12 11 11 12 11 10 10 10 10 11 12 13 14 13 14 14 13 14 14 15 15 16 16 18 15 16 17 19 18 20 22 21
27 29 25 19 22 17 13 17 16 18 22 28 30 28 24 26 27 27 27 27 26 25 27 28 27 27 27 28 29 29 29 29 27 26 26 26 24 22 19 17 16 15 15 17 17 18 17 16 16 14 14 14 14 14 14 14 14 14 14 14 14 13 12 11 11 13 12 12 11 12 10 10 9 10 10 12 14 14 13 13 14 13 14 14 14 15 17 14 16 15 14 16 17 20 21 22 21
30 31 30 25 23 27 21 23 23 23 25 25 27 25 27 27 28 27 26 25 25 25 26 26 26 25 26 27 26 27 27 28 27 25 24 23 22 20 19 17 16 15 16 16 16 17 18 17 16 15 14 14 15 14 14 13 13 13 14 14 14 15 14 13 13 13 11 12 12 10 10 10 10 11 12 13 13 13 13 13 12 12 13 13 13 13 14 13 16 15 14 15 18 22 20 22 21
29 32 24 25 34 30 26 27 28 28 26 23 26 25 26 27 26 25 23 24 24 24 24 25 25 25 25 25 25 25 25 26 26 24 24 22 18 18 17 16 16 15 15 16 16 17 17 17 16 15 15 14 13 13 13 12 12 12 13 12 12 13 13 12 11 12 12 12 12 11 11 12 12 12 15 14 13 12 12 12 12 11 12 13 12 13 13 14 15 14 15 16 18 18 19 20 20
32 25 26 35 33 31 27 21 23 21 19 20 22 22 24 23 23 23 22 23 22 23 23 24 24 24 24 25 25 25 26 26 25 23 24 23 18 17 17 16 15 15 15 15 16 17 16 17 15 14 14 13 13 12 12 12 12 12 13 13 12 12 11 11 12 11 11 11 11 10 10 12 11 13 12 15 12 11 12 13 11 11 11 12 12 11 12 13 14 12 15 14 17 18 18 19 20
32 32 37 25 22 23 26 24 16 15 14 15 18 18 21 22 23 25 22 23 22 22 23 23 23 23 23 24 25 26 27 26 25 24 24 23 18 16 16 15 15 14 15 15 17 17 18 16 15 14 14 13 13 13 13 13 14 16 15 12 12 11 11 11 12 11 11 11 10 10 11 11 11 10 10 11 11 10 10 10 11 10 9 10 10 10 11 11 13 12 14 14 17 18 18 18 18
33 34 32 32 29 27 23 22 24 16 15 16 18 20 16 23 22 26 24 23 23 22 22 22 22 23 23 24 25 27 27 26 25 25 24 24 19 16 17 16 14 15 15 16 16 17 16 16 16 15 15 15 15 14 13 12 14 14 14 12 12 11 11 11 11 10 9 10 10 10 9 9 10 9 10 11 9 9 9 9 9 9 9 9 9 10 10 11 12 12 13 16 16 18 18 18 18
30 30 30 29 28 29 25 24 21 17 17 14 17 15 17 20 24 25 25 24 23 22 22 22 22 23 24 25 26 27 26 25 26 26 24 23 20 16 17 17 17 15 15 16 17 16 16 17 15 15 13 13 13 13 12 12 12 12 12 11 11 11 11 10 10 9 8 9 10 9 9 9 10 10 10 9 9 8 7 9 8 8 7 8 9 9 10 10 11 13 13 16 17 17 17 17 17
30 30 29 30 26 24 20 20 20 20 18 15 13 8 18 19 21 20 22 25 24 23 23 22 23 23 24 26 27 27 26 25 26 25 23 23 21 18 18 19 19 16 16 15 16 16 16 15 15 14 12 13 12 12 12 12 11 11 11 10 10 11 10 9 9 9 8 8 8 9 9 9 9 9 9 9 7 9 8 8 8 7 7 7 8 8 9 10 11 13 14 18 18 17 16 17 17